Regional Weather Roundup
Issued by NWS Newport/Morehead, NC

Current Version | Previous Version | Text Only | Print | Product List | Glossary On
Versions: 1 2 3 4 5 6 7 8 9 10 11 12 13 14 15 16 17 18 19 20 21 22 23 24 25 26 27 28 29 30 31 32 33 34 35 36 37 38 39 40 41 42 43 44 45 46 47 48 49 50
000 ASUS42 KMHX 221110 RWRMHX WEATHER ROUNDUP FOR EASTERN NORTH CAROLINA NATIONAL WEATHER SERVICE NEWPORT/MOREHEAD CITY NC 700 AM EDT WED OCT 22 2014 NOTE: "FAIR" INDICATES FEW OR NO CLOUDS BELOW 12,000 FEET WITH NO SIGNIFICANT WEATHER AND/OR OBSTRUCTIONS TO VISIBILITY NCZ015>017-031-032-045>047-102-103-221200- NORTH COAST CITY SKY/WX TMP DP RH WIND PRES REMARKS EDENTON PTCLDY 53 51 92 NW7 29.86S ELIZABETH CITY MOCLDY 55 51 86 W14 29.84R KITTY HAWK PTSUNNY 56 53 91 W15G23 29.81R MANTEO CLOUDY 56 53 88 W13G21 29.82R $$ NCZ045>047-081-094-103-104-221200- CENTRAL COAST CITY SKY/WX TMP DP RH WIND PRES REMARKS FRISCO PTCLDY 58 54 86 NW14G22 29.83R SWANQUARTER N/A 54 N/A N/A NW12G17 29.82S $$ NCZ095-097-098-100-101-221200- SOUTHERN COAST CITY SKY/WX TMP DP RH WIND PRES REMARKS BEAUFORT PTCLDY 56 47 71 N13 29.89R CEDAR ISLAND N/A 57 N/A N/A NW22G29 29.88S JACKSONVILLE CLEAR 52 43 71 NW12 29.90R PINEY ISLAND SUNNY 58 48 69 NW13 29.87R WILMINGTON CLEAR 51 43 74 NW9 29.93R $$ NCZ011>013-027>030-043-044-078>080-089-090>093-098-221200- COASTAL PLAIN CITY SKY/WX TMP DP RH WIND PRES REMARKS AHOSKIE MOCLDY 50 47 89 CALM 29.89R CLINTON CLEAR 49 44 83 NW5 29.95R ELIZABETHTOWN CLEAR 50 42 72 NW6 29.95R GOLDSBORO CLEAR 50 47 91 CALM 29.91R GREENVILLE CLEAR 52 46 82 NW5 29.93R HAVELOCK CLEAR 53 44 71 NW12 29.89R KENANSVILLE CLEAR 49 42 78 NW5 29.94R KINSTON CLEAR 48 45 87 NW5 29.92R NEW BERN CLEAR 52 44 74 NW7 29.90R RICHLANDS CLEAR 50 39 66 W3 29.93R ROCKY MOUNT CLEAR 50 45 83 NW12 29.92R WASHINGTON CLEAR 50 46 86 NW5 29.89R WHITEVILLE CLEAR 50 41 70 CALM 29.96R $$ AMZ130-135-150-152-154-156-158-170-250-252-270-ANZ085-086-088-633-658-670-221200- MARINE OBSERVATIONS STATION/POSITION TIME TEMP WIND PRES WAVE SWELL AIR SEA DIR/SP/G HT/PER HT/PER (UTC) (F) (DEG/KT/KT) (MB) (FT/S) (FT/S) CHESAPEAKE LIGHT 1000 60 10/ 7/ 8 1009.0 64 E VA BEACH 1100 64 69 330/ 17/ 19 1006.5 4/ 7 2/ 7 DUCK 1100 56 68 300/ 17/ 22 1008.6 2 E DUCK 1100 N/A 3/11 2/11 10 NE DUCK 1100 71 N/A 3/ 4 2/11 OREGON INLET 1100 58 68 290/ 13/ 18 1009.2 13E OREGON INLT 1100 74 N/A 4/ 4 2/12 HATTERAS CG 1100 60 71 310/ 19/ 24 1010.6 DIAMOND BUOY 1100 61 300/ 19/ 25 1009.5 3/ 4 2/11 17 S OCRACOKE 1000 VRB 19/ 23 1010.0 CAPE LOOKOUT 1000 59 330/ 16/ 20 1011.0 BEAUFORT LAB 1100 57 70 340/ 8/ 13 1011.1 30 SE NEW RIVER 1000 62 76 340/ 19/ 23 1010.9 5 SE WRIGHTSVLE 1100 54 73 340/ 17/ 21 N/A 225 S CAPE HAT 0959 77 79 280/ 17/ 21 1011.0 5/ 5 2/ 9 41 SE CHARLESTON 1100 66 79 360/ 17/ 23 1013.4 5/ 6 2/10 $$

USA.gov is the U.S. government's official web portal to all federal, state and local government web resources and services.